Weather History for KSTE - December, 2012

Change the Weather History Date:

Friday, December 14, 2012

  Actual Average (WUND) Record (WUND)
Temperature  
Mean Temperature 24 °F -  
Max Temperature 34 °F - - (-1)
Min Temperature 14 °F - - (-1)
Degree Days  
Heating Degree Days 41    
Moisture  
Dew Point 23 °F    
Average Humidity 91    
Maximum Humidity 99    
Minimum Humidity 74    
Precipitation  
Precipitation 0.00 in - - ()
Sea Level Pressure  
Sea Level Pressure 30.11 in    
Wind  
Wind Speed 4 mph (East)    
Max Wind Speed 15 mph    
Max Gust Speed 18 mph    
Visibility 6 miles    
Events Fog    
Averages and records for this station are not official NWS values.
T = Trace of Precipitation, MM = Missing Value Source: NWS Daily Summary

Daily Weather History Graph

Daily Weather History Graph

Search for Another Location

Airport or City:

Trip Planner

Search our weather history database for the weather conditions in past years. The results will help you decide how hot, cold, wet, or windy it might be!

Date:

Astronomy

Dec. 14, 2012 Rise Set
Actual Time 7:27 AM CST 4:18 PM CST
Civil Twilight 6:54 AM CST 4:52 PM CST
Nautical Twilight 6:17 AM CST 5:28 PM CST
Astronomical Twilight 5:41 AM CST 6:04 PM CST
Moon 8:30 AM CST (12/14) 6:13 PM CST (12/14)
Length of Visible Light 9h 58m
Length of Day
8h 51m
Waxing Crescent, 3% of the Moon is Illuminated
Dec 14
Waxing Crescent
Dec 19
First Quarter
Dec 28
Full
Jan 4
Last Quarter
Jan 11
New

Hourly Weather History & Observations

Time (CST) Temp. Windchill Dew Point Humidity Pressure Visibility Wind Dir Wind Speed Gust Speed Precip Events Conditions
12:15 AM 14.5 °F - 13.1 °F 94% 30.11 in 7.0 mi Calm Calm - N/A   Clear
12:35 AM 14.9 °F - 13.5 °F 94% 30.12 in 7.0 mi Calm Calm - N/A   Clear
12:55 AM 14.9 °F - 13.6 °F 95% 30.11 in 7.0 mi Calm Calm - N/A   Clear
1:15 AM 15.4 °F - 14.0 °F 94% 30.12 in 5.0 mi Calm Calm - N/A   Clear
1:35 AM 14.5 °F - 12.9 °F 93% 30.13 in 7.0 mi Calm Calm - N/A   Clear
1:55 AM 15.4 °F - 14.0 °F 94% 30.13 in 7.0 mi Calm Calm - N/A   Clear
2:15 AM 15.1 °F - 13.5 °F 93% 30.13 in 7.0 mi Calm Calm - N/A   Clear
2:35 AM 14.0 °F - 12.6 °F 94% 30.14 in 7.0 mi Calm Calm - N/A   Clear
2:55 AM 14.5 °F - 12.9 °F 93% 30.14 in 7.0 mi Calm Calm - N/A   Clear
3:15 AM 14.0 °F - 12.0 °F 92% 30.14 in 7.0 mi Calm Calm - N/A   Clear
3:35 AM 14.0 °F - 12.2 °F 93% 30.14 in 7.0 mi Calm Calm - N/A   Clear
3:55 AM 14.5 °F - 12.7 °F 93% 30.14 in 7.0 mi Calm Calm - N/A   Clear
4:35 AM 14.2 °F - 12.6 °F 93% 30.15 in 7.0 mi Calm Calm - N/A   Clear
5:15 AM 14.2 °F - 12.2 °F 92% 30.14 in 7.0 mi Calm Calm - N/A   Clear
5:35 AM 15.6 °F 10.0 °F 13.8 °F 93% 30.14 in 7.0 mi NNE 3.5 mph - N/A   Clear
5:55 AM 16.3 °F 9.2 °F 14.4 °F 92% 30.14 in 7.0 mi NNE 4.6 mph - N/A   Clear
6:15 AM 16.2 °F 10.6 °F 14.0 °F 91% 30.15 in 7.0 mi NNE 3.5 mph - N/A   Clear
6:35 AM 14.2 °F - 11.8 °F 90% 30.15 in 7.0 mi Calm Calm - N/A   Clear
6:55 AM 17.2 °F 7.8 °F 15.3 °F 92% 30.15 in 10.0 mi NE 6.9 mph - N/A   Clear
7:15 AM 18.9 °F 12.1 °F 16.5 °F 91% 30.15 in 10.0 mi NNE 4.6 mph - N/A   Clear
7:35 AM 18.7 °F 13.5 °F 16.5 °F 91% 30.16 in 7.0 mi NNE 3.5 mph - N/A   Scattered Clouds
7:55 AM 16.3 °F 9.2 °F 14.4 °F 92% 30.16 in 7.0 mi NE 4.6 mph - N/A   Scattered Clouds
8:15 AM 20.7 °F 11.9 °F 19.0 °F 93% 30.16 in 7.0 mi East 6.9 mph - N/A   Mostly Cloudy
8:35 AM 24.6 °F 13.8 °F 23.5 °F 96% 30.16 in 3.0 mi East 11.5 mph - N/A   Overcast
8:55 AM 25.2 °F 17.3 °F 24.4 °F 97% 30.17 in 2.5 mi East 6.9 mph - N/A   Overcast
9:15 AM 25.7 °F 17.1 °F 25.3 °F 99% 30.18 in 1.8 mi East 8.1 mph - N/A   Overcast
9:35 AM 26.1 °F 16.8 °F 25.5 °F 98% 30.19 in 1.2 mi East 9.2 mph - N/A   Overcast
9:55 AM 26.6 °F 19.1 °F 26.4 °F 99% 30.19 in 0.2 mi East 6.9 mph - N/A Fog Light Freezing Fog
10:15 AM 27.7 °F 19.6 °F 27.5 °F 99% 30.19 in 1.0 mi East 8.1 mph - N/A   Overcast
10:35 AM 28.4 °F 19.1 °F 28.2 °F 99% 30.19 in 2.5 mi East 10.4 mph - N/A   Overcast
10:55 AM 28.9 °F 20.4 °F 27.9 °F 96% 30.18 in 3.0 mi ESE 9.2 mph - N/A   Overcast
11:15 AM 28.9 °F 20.4 °F 27.3 °F 94% 30.17 in 5.0 mi East 9.2 mph - N/A   Overcast
11:35 AM 29.3 °F 20.8 °F 27.3 °F 92% 30.16 in 4.0 mi East 9.2 mph - N/A   Mostly Cloudy
11:55 AM 29.7 °F 20.7 °F 27.1 °F 90% 30.15 in 5.0 mi East 10.4 mph - N/A   Mostly Cloudy
12:15 PM 31.1 °F 24.5 °F 27.1 °F 85% 30.14 in 5.0 mi East 6.9 mph - N/A   Scattered Clouds
12:35 PM 32.0 °F 24.8 °F 27.5 °F 83% 30.13 in 7.0 mi East 8.1 mph - N/A   Clear
12:55 PM 32.5 °F 24.8 °F 27.5 °F 82% 30.12 in 7.0 mi East 9.2 mph - N/A   Clear
1:15 PM 33.4 °F 25.4 °F 27.3 °F 78% 30.11 in 10.0 mi East 10.4 mph - N/A   Clear
1:55 PM 34.2 °F 26.8 °F 27.0 °F 75% 30.10 in 10.0 mi East 9.2 mph - N/A   Clear
2:35 PM 34.7 °F 26.9 °F 27.1 °F 74% 30.07 in 10.0 mi East 10.4 mph - N/A   Clear
2:55 PM 34.2 °F 26.8 °F 27.3 °F 76% 30.07 in 10.0 mi East 9.2 mph - N/A   Clear
3:35 PM 33.1 °F 24.9 °F 27.3 °F 79% 30.08 in 10.0 mi ESE 10.4 mph - N/A   Clear
3:55 PM 32.2 °F 25.8 °F 27.1 °F 82% 30.09 in 10.0 mi East 6.9 mph - N/A   Clear
4:15 PM 31.8 °F 24.6 °F 26.6 °F 81% 30.08 in 10.0 mi East 8.1 mph - N/A   Clear
4:35 PM 31.6 °F 25.1 °F 26.4 °F 81% 30.07 in 10.0 mi East 6.9 mph - N/A   Clear
4:55 PM 31.1 °F 23.7 °F 26.4 °F 83% 30.08 in 10.0 mi East 8.1 mph - N/A   Clear
5:15 PM 30.2 °F 23.4 °F 26.6 °F 86% 30.07 in 10.0 mi East 6.9 mph - N/A   Clear
5:35 PM 30.0 °F 22.4 °F 27.3 °F 90% 30.07 in 10.0 mi East 8.1 mph - N/A   Clear
5:55 PM 30.0 °F 22.4 °F 28.0 °F 92% 30.07 in 7.0 mi East 8.1 mph - N/A   Clear
6:15 PM 30.0 °F 22.4 °F 28.2 °F 93% 30.07 in 7.0 mi East 8.1 mph - N/A   Clear
6:35 PM 29.8 °F 20.9 °F 28.4 °F 94% 30.06 in 7.0 mi East 10.4 mph - N/A   Clear
6:55 PM 30.2 °F 21.3 °F 28.8 °F 94% 30.06 in 7.0 mi East 10.4 mph 16.1 mph N/A   Mostly Cloudy
7:15 PM 31.1 °F 21.9 °F 29.7 °F 94% 30.06 in 7.0 mi East 11.5 mph 18.4 mph N/A   Overcast
7:35 PM 31.5 °F 21.8 °F 29.8 °F 94% 30.06 in 7.0 mi East 12.7 mph 18.4 mph N/A   Overcast
8:15 PM 32.0 °F 22.5 °F 30.7 °F 95% 30.06 in 7.0 mi East 12.7 mph - N/A   Overcast
8:35 PM 32.0 °F 22.5 °F 30.6 °F 94% 30.05 in 7.0 mi East 12.7 mph - N/A   Overcast
8:55 PM 32.0 °F 21.6 °F 30.6 °F 94% 30.05 in 7.0 mi East 15.0 mph - N/A   Overcast
9:15 PM 32.0 °F 23.0 °F 30.6 °F 94% 30.04 in 7.0 mi East 11.5 mph 18.4 mph N/A   Overcast
9:55 PM 32.0 °F 22.1 °F 30.6 °F 94% 30.03 in 5.0 mi East 13.8 mph - N/A   Overcast
10:15 PM 32.0 °F 23.0 °F 30.7 °F 95% 30.03 in 4.0 mi East 11.5 mph - N/A   Overcast
10:35 PM 32.0 °F 23.0 °F 30.9 °F 96% 30.03 in 4.0 mi East 11.5 mph 17.3 mph N/A   Overcast
10:55 PM 31.8 °F 22.8 °F 30.7 °F 96% 30.02 in 4.0 mi East 11.5 mph 17.3 mph N/A   Overcast
11:15 PM 31.8 °F 23.9 °F 30.9 °F 96% 30.01 in 3.0 mi East 9.2 mph - N/A   Overcast
11:35 PM 31.5 °F 22.9 °F 30.7 °F 97% 29.99 in 3.0 mi ENE 10.4 mph - N/A   Overcast
11:55 PM 31.6 °F 23.1 °F 30.9 °F 97% 29.98 in 3.0 mi East 10.4 mph - N/A   Overcast